Location: El Manguito
(10.2358°N, 67.3634°W)
Time: 21:08:34
(UTC+00:00)

Aurora 2 Rocket - Pass Details

Date: 13 December 2024
Orbit: 386 x 1590 km, 25.0° (Epoch: 12 January)

Event Time Altitude Azimuth Distance (km) Brightness Sun altitude
Exits shadow 09:47:58 14° 276° (W) 2,419 5.0 -12.2°
Maximum altitude 09:53:04 41° 211° (SSW) 1,135 3.8 -11.0°
Drops below altitude 10° 09:57:35 10° 140° (SE) 2,035 6.3 -10.0°
Sets 09:59:42 0° 133° (SE) 2,790 7.4 -9.5°
